Time,TemperatureF,DewpointF,PressureIn,WindDirection,WindDirectionDegrees,WindSpeedMPH,WindSpeedGustMPH,Humidity,HourlyPrecipIn,Conditions,Clouds,dailyrainin,SoftwareType,DateUTC
2013-07-17 00:01:00,77.0,67.8,30.18,SW,225,0.0,0.0,73,0.00,,,0.00,WUHU216HW,2013-07-17 04:01:00,
2013-07-17 00:06:00,76.9,67.6,30.17,SE,135,0.0,0.4,73,0.00,,,0.00,WUHU216HW,2013-07-17 04:06:00,
2013-07-17 00:11:00,76.7,67.4,30.17,SE,135,0.0,0.4,73,0.00,,,0.00,WUHU216HW,2013-07-17 04:11:00,
2013-07-17 00:16:00,76.5,67.6,30.17,SSW,203,0.4,0.7,74,0.00,,,0.00,WUHU216HW,2013-07-17 04:16:00,
2013-07-17 00:21:00,76.5,67.6,30.17,South,180,0.0,0.7,74,0.00,,,0.00,WUHU216HW,2013-07-17 04:21:00,
2013-07-17 00:26:00,76.3,67.8,30.17,South,180,0.0,0.4,75,0.00,,,0.00,WUHU216HW,2013-07-17 04:26:00,
2013-07-17 00:31:00,76.1,67.7,30.17,South,180,0.0,0.2,75,0.00,,,0.00,WUHU216HW,2013-07-17 04:31:00,
2013-07-17 00:36:00,76.1,67.7,30.17,ESE,113,1.1,1.1,75,0.00,,,0.00,WUHU216HW,2013-07-17 04:36:00,
2013-07-17 00:41:00,76.0,67.5,30.17,ESE,113,0.0,1.1,75,0.00,,,0.00,WUHU216HW,2013-07-17 04:41:00,
2013-07-17 00:46:00,75.8,67.3,30.17,ESE,113,0.2,1.1,75,0.00,,,0.00,WUHU216HW,2013-07-17 04:46:00,
2013-07-17 00:51:00,75.6,67.5,30.17,ESE,113,0.4,0.4,76,0.00,,,0.00,WUHU216HW,2013-07-17 04:51:00,
2013-07-17 00:55:00,75.6,68.0,30.17,ESE,113,0.0,0.7,77,0.00,,,0.00,WUHU216HW,2013-07-17 04:55:00,
2013-07-17 00:59:00,75.2,67.6,30.17,ESE,113,0.0,0.7,77,0.00,,,0.00,WUHU216HW,2013-07-17 04:59:00,
2013-07-17 01:04:00,75.2,67.6,30.17,ESE,113,0.0,0.4,77,0.00,,,0.00,WUHU216HW,2013-07-17 05:04:00,
2013-07-17 01:09:00,75.2,67.6,30.17,ESE,113,0.0,0.0,77,0.00,,,0.00,WUHU216HW,2013-07-17 05:09:00,
2013-07-17 01:14:00,75.2,67.6,30.17,ESE,113,0.0,0.0,77,0.00,,,0.00,WUHU216HW,2013-07-17 05:14:00,
2013-07-17 01:19:00,75.2,68.0,30.17,SSE,158,0.0,0.0,78,0.00,,,0.00,WUHU216HW,2013-07-17 05:19:00,
2013-07-17 01:24:00,75.1,67.8,30.16,SW,225,0.0,0.2,78,0.00,,,0.00,WUHU216HW,2013-07-17 05:24:00,
2013-07-17 01:29:00,75.1,67.8,30.16,SW,225,0.0,0.4,78,0.00,,,0.00,WUHU216HW,2013-07-17 05:29:00,
2013-07-17 01:34:00,74.9,67.6,30.16,SW,225,0.0,0.4,78,0.00,,,0.00,WUHU216HW,2013-07-17 05:34:00,
2013-07-17 01:39:00,74.7,67.4,30.16,SW,225,0.2,0.2,78,0.00,,,0.00,WUHU216HW,2013-07-17 05:39:00,
2013-07-17 01:44:00,74.7,67.4,30.16,SW,225,0.0,0.4,78,0.00,,,0.00,WUHU216HW,2013-07-17 05:44:00,
2013-07-17 01:49:00,74.5,67.7,30.16,SW,225,0.0,0.4,79,0.00,,,0.00,WUHU216HW,2013-07-17 05:49:00,
2013-07-17 01:54:00,74.5,67.7,30.16,SW,225,0.0,0.0,79,0.00,,,0.00,WUHU216HW,2013-07-17 05:54:00,
2013-07-17 01:59:00,74.3,67.5,30.16,SW,225,0.4,0.4,79,0.00,,,0.00,WUHU216HW,2013-07-17 05:59:00,
2013-07-17 02:04:00,74.2,67.7,30.16,SSE,158,0.7,0.7,80,0.00,,,0.00,WUHU216HW,2013-07-17 06:04:00,
2013-07-17 02:09:00,74.2,68.1,30.16,SSE,158,0.7,0.9,81,0.00,,,0.00,WUHU216HW,2013-07-17 06:09:00,
2013-07-17 02:14:00,73.8,67.7,30.16,SSE,158,0.4,0.9,81,0.00,,,0.00,WUHU216HW,2013-07-17 06:14:00,
2013-07-17 02:19:00,73.8,67.7,30.16,SSE,158,0.7,0.9,81,0.00,,,0.00,WUHU216HW,2013-07-17 06:19:00,
2013-07-17 02:24:00,73.6,67.5,30.16,ESE,113,0.7,1.1,81,0.00,,,0.00,WUHU216HW,2013-07-17 06:24:00,
2013-07-17 02:29:00,73.4,67.3,30.17,ESE,113,0.0,1.1,81,0.00,,,0.00,WUHU216HW,2013-07-17 06:29:00,
2013-07-17 02:34:00,73.4,67.3,30.16,ESE,113,0.0,0.9,81,0.00,,,0.00,WUHU216HW,2013-07-17 06:34:00,
2013-07-17 02:39:00,73.4,67.7,30.16,ESE,113,0.0,0.0,82,0.00,,,0.00,WUHU216HW,2013-07-17 06:39:00,
2013-07-17 02:44:00,73.4,67.7,30.16,ESE,113,0.4,0.7,82,0.00,,,0.00,WUHU216HW,2013-07-17 06:44:00,
2013-07-17 02:49:00,73.3,67.8,30.16,ESE,113,0.4,0.7,83,0.00,,,0.00,WUHU216HW,2013-07-17 06:49:00,
2013-07-17 02:54:00,73.3,67.5,30.16,ESE,113,0.7,0.9,82,0.00,,,0.00,WUHU216HW,2013-07-17 06:54:00,
2013-07-17 02:59:00,73.1,67.3,30.16,ESE,113,0.4,0.9,82,0.00,,,0.00,WUHU216HW,2013-07-17 06:59:00,
2013-07-17 03:04:00,73.1,67.6,30.16,ESE,113,0.4,1.1,83,0.00,,,0.00,WUHU216HW,2013-07-17 07:04:00,
2013-07-17 03:09:00,73.1,67.6,30.16,ESE,113,0.4,1.1,83,0.00,,,0.00,WUHU216HW,2013-07-17 07:09:00,
2013-07-17 03:14:00,72.7,67.2,30.16,ESE,113,0.4,0.9,83,0.00,,,0.00,WUHU216HW,2013-07-17 07:14:00,
2013-07-17 03:19:00,72.7,67.2,30.16,ESE,113,0.0,0.4,83,0.00,,,0.00,WUHU216HW,2013-07-17 07:19:00,
2013-07-17 03:24:00,72.7,67.0,30.16,ESE,113,0.4,0.7,82,0.00,,,0.00,WUHU216HW,2013-07-17 07:24:00,
2013-07-17 03:29:00,72.7,67.2,30.16,ESE,113,0.4,0.7,83,0.00,,,0.00,WUHU216HW,2013-07-17 07:29:00,
2013-07-17 03:34:00,72.7,67.2,30.16,ESE,113,0.7,0.7,83,0.00,,,0.00,WUHU216HW,2013-07-17 07:34:00,
2013-07-17 03:39:00,72.5,67.1,30.16,ESE,113,0.4,1.1,83,0.00,,,0.00,WUHU216HW,2013-07-17 07:39:00,
2013-07-17 03:44:00,72.4,66.9,30.16,ESE,113,0.2,1.1,83,0.00,,,0.00,WUHU216HW,2013-07-17 07:44:00,
2013-07-17 03:49:00,72.4,66.9,30.16,ESE,113,0.0,0.7,83,0.00,,,0.00,WUHU216HW,2013-07-17 07:49:00,
2013-07-17 03:54:00,72.4,66.9,30.16,ESE,113,0.4,0.4,83,0.00,,,0.00,WUHU216HW,2013-07-17 07:54:00,
2013-07-17 03:59:00,72.4,66.9,30.16,ESE,113,0.0,0.4,83,0.00,,,0.00,WUHU216HW,2013-07-17 07:59:00,
2013-07-17 04:04:00,72.4,66.9,30.16,ESE,113,0.0,0.4,83,0.00,,,0.00,WUHU216HW,2013-07-17 08:04:00,
2013-07-17 04:09:00,72.2,66.7,30.16,ESE,113,0.0,0.2,83,0.00,,,0.00,WUHU216HW,2013-07-17 08:09:00,
2013-07-17 04:14:00,72.2,67.1,30.16,ESE,113,0.0,0.0,84,0.00,,,0.00,WUHU216HW,2013-07-17 08:14:00,
2013-07-17 04:19:00,72.2,66.7,30.16,ESE,113,0.4,0.4,83,0.00,,,0.00,WUHU216HW,2013-07-17 08:19:00,
2013-07-17 04:24:00,72.2,67.1,30.16,ESE,113,0.0,0.4,84,0.00,,,0.00,WUHU216HW,2013-07-17 08:24:00,
2013-07-17 04:29:00,72.0,66.9,30.16,ESE,113,0.0,0.4,84,0.00,,,0.00,WUHU216HW,2013-07-17 08:29:00,
2013-07-17 04:34:00,72.0,66.9,30.17,ESE,113,0.0,0.0,84,0.00,,,0.00,WUHU216HW,2013-07-17 08:34:00,
2013-07-17 04:39:00,72.0,66.9,30.16,ESE,113,0.0,0.0,84,0.00,,,0.00,WUHU216HW,2013-07-17 08:39:00,
2013-07-17 04:44:00,71.8,66.7,30.17,ESE,113,0.0,0.0,84,0.00,,,0.00,WUHU216HW,2013-07-17 08:44:00,
2013-07-17 04:49:00,71.8,66.7,30.17,ESE,113,0.0,0.0,84,0.00,,,0.00,WUHU216HW,2013-07-17 08:49:00,
2013-07-17 04:54:00,71.8,67.1,30.17,SSW,203,0.9,0.9,85,0.00,,,0.00,WUHU216HW,2013-07-17 08:54:00,
2013-07-17 04:59:00,71.8,66.7,30.17,SSW,203,0.7,0.9,84,0.00,,,0.00,WUHU216HW,2013-07-17 08:59:00,
2013-07-17 05:04:00,71.8,66.7,30.17,SSW,203,0.0,0.9,84,0.00,,,0.00,WUHU216HW,2013-07-17 09:04:00,
2013-07-17 05:09:00,71.8,66.7,30.17,SSW,203,0.0,0.7,84,0.00,,,0.00,WUHU216HW,2013-07-17 09:09:00,
2013-07-17 05:14:00,71.8,66.7,30.17,SSW,203,0.0,0.0,84,0.00,,,0.00,WUHU216HW,2013-07-17 09:14:00,
2013-07-17 05:19:00,71.6,66.5,30.18,SSW,203,0.0,0.0,84,0.00,,,0.00,WUHU216HW,2013-07-17 09:19:00,
2013-07-17 05:24:00,71.6,66.5,30.18,SSW,203,0.0,0.0,84,0.00,,,0.00,WUHU216HW,2013-07-17 09:24:00,
2013-07-17 05:29:00,71.6,66.5,30.18,SSW,203,0.0,0.0,84,0.00,,,0.00,WUHU216HW,2013-07-17 09:29:00,
2013-07-17 05:34:00,71.6,66.5,30.18,SSW,203,0.0,0.0,84,0.00,,,0.00,WUHU216HW,2013-07-17 09:34:00,
2013-07-17 05:39:00,71.6,66.5,30.18,SSW,203,0.0,0.0,84,0.00,,,0.00,WUHU216HW,2013-07-17 09:39:00,
2013-07-17 05:44:00,71.6,66.5,30.18,SSW,203,0.0,0.0,84,0.00,,,0.00,WUHU216HW,2013-07-17 09:44:00,
2013-07-17 05:49:00,71.6,66.5,30.18,SSW,203,0.4,0.4,84,0.00,,,0.00,WUHU216HW,2013-07-17 09:49:00,
2013-07-17 05:54:00,71.6,66.9,30.18,SSW,203,0.0,0.4,85,0.00,,,0.00,WUHU216HW,2013-07-17 09:54:00,
2013-07-17 05:59:00,71.6,66.9,30.18,SSW,203,0.0,0.4,85,0.00,,,0.00,WUHU216HW,2013-07-17 09:59:00,
2013-07-17 06:04:00,71.6,66.9,30.18,SSW,203,0.0,0.0,85,0.00,,,0.00,WUHU216HW,2013-07-17 10:04:00,
2013-07-17 06:09:00,71.6,66.9,30.18,SSW,203,0.0,0.0,85,0.00,,,0.00,WUHU216HW,2013-07-17 10:09:00,
2013-07-17 06:14:00,71.6,66.9,30.18,SSW,203,0.0,0.0,85,0.00,,,0.00,WUHU216HW,2013-07-17 10:14:00,
2013-07-17 06:19:00,71.8,67.4,30.18,SSW,203,0.4,0.4,86,0.00,,,0.00,WUHU216HW,2013-07-17 10:19:00,
2013-07-17 06:24:00,72.0,67.2,30.18,SSW,203,1.1,1.1,85,0.00,,,0.00,WUHU216HW,2013-07-17 10:24:00,
2013-07-17 06:29:00,72.2,67.4,30.18,SSW,203,0.0,1.1,85,0.00,,,0.00,WUHU216HW,2013-07-17 10:29:00,
2013-07-17 06:34:00,72.4,67.6,30.18,SSW,203,0.0,1.1,85,0.00,,,0.00,WUHU216HW,2013-07-17 10:34:00,
2013-07-17 06:39:00,72.4,67.6,30.19,SSW,203,0.0,0.0,85,0.00,,,0.00,WUHU216HW,2013-07-17 10:39:00,
2013-07-17 06:44:00,72.5,67.8,30.18,SSW,203,0.0,0.0,85,0.00,,,0.00,WUHU216HW,2013-07-17 10:44:00,
2013-07-17 06:49:00,72.7,68.3,30.18,SSW,203,0.4,1.1,86,0.00,,,0.00,WUHU216HW,2013-07-17 10:49:00,
2013-07-17 06:54:00,72.7,68.3,30.19,SSW,203,0.2,1.1,86,0.00,,,0.00,WUHU216HW,2013-07-17 10:54:00,
2013-07-17 06:59:00,73.1,69.0,30.18,SSW,203,0.0,0.4,87,0.00,,,0.00,WUHU216HW,2013-07-17 10:59:00,
2013-07-17 07:04:00,73.3,69.2,30.18,SSW,203,0.0,0.2,87,0.00,,,0.00,WUHU216HW,2013-07-17 11:04:00,
2013-07-17 07:09:00,73.4,69.0,30.19,SSW,203,0.0,0.0,86,0.00,,,0.00,WUHU216HW,2013-07-17 11:09:00,
2013-07-17 07:14:00,73.8,70.0,30.18,SSW,203,0.7,0.9,88,0.00,,,0.00,WUHU216HW,2013-07-17 11:14:00,
2013-07-17 07:19:00,74.3,70.3,30.18,SE,135,0.2,0.9,87,0.00,,,0.00,WUHU216HW,2013-07-17 11:19:00,
2013-07-17 07:24:00,74.5,70.1,30.18,ENE,68,1.1,1.6,86,0.00,,,0.00,WUHU216HW,2013-07-17 11:24:00,
2013-07-17 07:29:00,74.9,70.1,30.18,East,90,0.7,1.6,85,0.00,,,0.00,WUHU216HW,2013-07-17 11:29:00,
2013-07-17 07:34:00,75.1,70.3,30.18,East,90,0.0,1.1,85,0.00,,,0.00,WUHU216HW,2013-07-17 11:34:00,
2013-07-17 07:39:00,75.2,70.5,30.18,ENE,68,0.7,0.7,85,0.00,,,0.00,WUHU216HW,2013-07-17 11:39:00,
2013-07-17 07:44:00,75.6,70.5,30.19,North,0,0.4,2.9,84,0.00,,,0.00,WUHU216HW,2013-07-17 11:44:00,
2013-07-17 07:49:00,75.8,70.7,30.18,NNW,338,0.2,2.9,84,0.00,,,0.00,WUHU216HW,2013-07-17 11:49:00,
2013-07-17 07:54:00,76.1,70.7,30.18,NNW,338,0.7,0.7,83,0.00,,,0.00,WUHU216HW,2013-07-17 11:54:00,
2013-07-17 07:59:00,76.5,70.6,30.18,NW,315,0.4,0.9,82,0.00,,,0.00,WUHU216HW,2013-07-17 11:59:00,
2013-07-17 08:04:00,77.0,70.4,30.18,SE,135,0.9,1.3,80,0.00,,,0.00,WUHU216HW,2013-07-17 12:04:00,
2013-07-17 08:09:00,77.6,70.9,30.18,WSW,248,1.8,2.2,80,0.00,,,0.00,WUHU216HW,2013-07-17 12:09:00,
2013-07-17 08:14:00,77.9,71.3,30.19,South,180,1.1,2.2,80,0.00,,,0.00,WUHU216HW,2013-07-17 12:14:00,
2013-07-17 08:19:00,78.1,70.7,30.19,WSW,248,1.8,2.2,78,0.00,,,0.00,WUHU216HW,2013-07-17 12:19:00,
2013-07-17 08:24:00,78.7,71.2,30.19,SW,225,2.9,2.9,78,0.00,,,0.00,WUHU216HW,2013-07-17 12:24:00,
2013-07-17 08:29:00,78.8,71.4,30.19,West,270,1.6,2.9,78,0.00,,,0.00,WUHU216HW,2013-07-17 12:29:00,
2013-07-17 08:34:00,79.0,71.2,30.19,WSW,248,1.8,2.9,77,0.00,,,0.00,WUHU216HW,2013-07-17 12:34:00,
2013-07-17 08:39:00,79.2,70.6,30.19,WSW,248,2.5,3.6,75,0.00,,,0.00,WUHU216HW,2013-07-17 12:39:00,
2013-07-17 08:44:00,79.7,70.3,30.19,SSW,203,2.7,3.6,73,0.00,,,0.00,WUHU216HW,2013-07-17 12:44:00,
2013-07-17 08:49:00,80.3,70.8,30.19,East,90,1.1,3.4,73,0.00,,,0.00,WUHU216HW,2013-07-17 12:49:00,
2013-07-17 08:54:00,80.3,70.8,30.19,SW,225,0.9,3.4,73,0.00,,,0.00,WUHU216HW,2013-07-17 12:54:00,
2013-07-17 08:59:00,80.5,71.0,30.19,West,270,1.1,3.4,73,0.00,,,0.00,WUHU216HW,2013-07-17 12:59:00,
2013-07-17 09:04:00,80.8,70.2,30.19,WSW,248,0.9,3.6,70,0.00,,,0.00,WUHU216HW,2013-07-17 13:04:00,
2013-07-17 09:09:00,81.2,70.9,30.19,SW,225,0.7,3.6,71,0.00,,,0.00,WUHU216HW,2013-07-17 13:09:00,
2013-07-17 09:14:00,81.7,71.0,30.18,WNW,293,1.8,3.6,70,0.00,,,0.00,WUHU216HW,2013-07-17 13:14:00,
2013-07-17 09:19:00,83.2,72.8,30.18,North,0,0.7,3.6,71,0.00,,,0.00,WUHU216HW,2013-07-17 13:19:00,
2013-07-17 09:24:00,85.0,72.8,30.18,WSW,248,0.9,2.5,67,0.00,,,0.00,WUHU216HW,2013-07-17 13:24:00,
2013-07-17 09:29:00,86.0,72.9,30.18,WSW,248,1.8,3.4,65,0.00,,,0.00,WUHU216HW,2013-07-17 13:29:00,
2013-07-17 09:34:00,86.4,70.9,30.18,SW,225,2.5,4.0,60,0.00,,,0.00,WUHU216HW,2013-07-17 13:34:00,
2013-07-17 09:39:00,87.1,72.1,30.18,West,270,1.1,4.0,61,0.00,,,0.00,WUHU216HW,2013-07-17 13:39:00,
2013-07-17 09:44:00,88.6,73.4,30.18,WNW,293,1.1,2.2,61,0.00,,,0.00,WUHU216HW,2013-07-17 13:44:00,
2013-07-17 09:49:00,89.8,72.0,30.18,WNW,293,1.8,4.0,56,0.00,,,0.00,WUHU216HW,2013-07-17 13:49:00,
2013-07-17 09:54:00,89.1,73.5,30.18,West,270,1.8,4.0,60,0.00,,,0.00,WUHU216HW,2013-07-17 13:54:00,
2013-07-17 09:59:00,90.4,73.5,30.18,WSW,248,2.0,6.0,58,0.00,,,0.00,WUHU216HW,2013-07-17 13:59:00,
2013-07-17 10:04:00,90.5,71.6,30.18,SW,225,1.8,6.0,54,0.00,,,0.00,WUHU216HW,2013-07-17 14:04:00,
2013-07-17 10:09:00,90.0,73.3,30.18,West,270,0.9,2.9,58,0.00,,,0.00,WUHU216HW,2013-07-17 14:09:00,
2013-07-17 10:14:00,89.6,72.4,30.17,WSW,248,1.1,3.8,57,0.00,,,0.00,WUHU216HW,2013-07-17 14:14:00,
2013-07-17 10:19:00,91.1,73.6,30.17,West,270,1.6,3.8,57,0.00,,,0.00,WUHU216HW,2013-07-17 14:19:00,
2013-07-17 10:24:00,93.1,75.0,30.17,West,270,1.6,3.1,56,0.00,,,0.00,WUHU216HW,2013-07-17 14:24:00,
2013-07-17 10:28:00,92.3,71.0,30.17,South,180,1.8,4.0,50,0.00,,,0.00,WUHU216HW,2013-07-17 14:28:00,
2013-07-17 10:34:00,90.0,71.1,30.17,WSW,248,2.0,4.0,54,0.00,,,0.00,WUHU216HW,2013-07-17 14:34:00,
2013-07-17 10:39:00,90.0,72.2,30.17,West,270,1.8,3.4,56,0.00,,,0.00,WUHU216HW,2013-07-17 14:39:00,
2013-07-17 10:44:00,92.0,72.9,30.17,WSW,248,1.6,2.9,54,0.00,,,0.00,WUHU216HW,2013-07-17 14:44:00,
2013-07-17 10:49:00,92.3,71.6,30.17,WSW,248,1.3,2.0,51,0.00,,,0.00,WUHU216HW,2013-07-17 14:49:00,
2013-07-17 10:54:00,92.7,71.4,30.17,SW,225,5.4,5.4,50,0.00,,,0.00,WUHU216HW,2013-07-17 14:54:00,
2013-07-17 10:59:00,91.8,70.6,30.17,SSW,203,2.0,5.4,50,0.00,,,0.00,WUHU216HW,2013-07-17 14:59:00,
2013-07-17 11:04:00,92.2,71.9,30.17,NW,315,1.1,5.4,52,0.00,,,0.00,WUHU216HW,2013-07-17 15:04:00,
2013-07-17 11:09:00,93.4,73.1,30.16,ESE,113,0.9,2.0,52,0.00,,,0.00,WUHU216HW,2013-07-17 15:09:00,
2013-07-17 11:14:00,92.9,71.5,30.16,SW,225,3.1,5.1,50,0.00,,,0.00,WUHU216HW,2013-07-17 15:14:00,
2013-07-17 11:19:00,92.5,71.2,30.16,WSW,248,2.7,5.1,50,0.00,,,0.00,WUHU216HW,2013-07-17 15:19:00,
2013-07-17 11:24:00,94.1,72.1,30.16,SW,225,3.4,6.3,49,0.00,,,0.00,WUHU216HW,2013-07-17 15:24:00,
2013-07-17 11:29:00,93.8,71.0,30.16,South,180,1.8,6.3,48,0.00,,,0.00,WUHU216HW,2013-07-17 15:29:00,
2013-07-17 11:34:00,94.5,71.7,30.16,WSW,248,2.0,4.7,48,0.00,,,0.00,WUHU216HW,2013-07-17 15:34:00,
2013-07-17 11:39:00,94.9,72.1,30.16,WSW,248,5.6,5.6,48,0.00,,,0.00,WUHU216HW,2013-07-17 15:39:00,
2013-07-17 11:44:00,94.3,70.9,30.16,West,270,2.5,5.6,47,0.00,,,0.00,WUHU216HW,2013-07-17 15:44:00,
2013-07-17 11:49:00,94.1,71.4,30.15,WSW,248,2.5,5.6,48,0.00,,,0.00,WUHU216HW,2013-07-17 15:49:00,
2013-07-17 11:54:00,93.8,71.0,30.15,SW,225,3.1,4.7,48,0.00,,,0.00,WUHU216HW,2013-07-17 15:54:00,
2013-07-17 11:59:00,93.6,70.9,30.15,SW,225,5.1,5.8,48,0.00,,,0.00,WUHU216HW,2013-07-17 15:59:00,
2013-07-17 12:04:00,93.6,70.9,30.15,SW,225,3.4,8.1,48,0.00,,,0.00,WUHU216HW,2013-07-17 16:04:00,
2013-07-17 12:09:00,94.0,71.9,30.15,SSW,203,5.6,8.1,49,0.00,,,0.00,WUHU216HW,2013-07-17 16:09:00,
2013-07-17 12:14:00,95.0,72.3,30.15,SW,225,5.4,5.6,48,0.00,,,0.00,WUHU216HW,2013-07-17 16:14:00,
2013-07-17 12:19:00,95.8,71.7,30.15,West,270,2.5,5.6,46,0.00,,,0.00,WUHU216HW,2013-07-17 16:19:00,
2013-07-17 12:24:00,96.3,70.1,30.15,SSE,158,3.4,5.4,43,0.00,,,0.00,WUHU216HW,2013-07-17 16:24:00,
2013-07-17 12:29:00,94.7,70.7,30.14,SW,225,1.8,5.4,46,0.00,,,0.00,WUHU216HW,2013-07-17 16:29:00,
2013-07-17 12:34:00,95.6,71.5,30.14,WSW,248,2.7,5.4,46,0.00,,,0.00,WUHU216HW,2013-07-17 16:34:00,
2013-07-17 12:39:00,95.4,70.7,30.14,SSW,203,3.4,5.8,45,0.00,,,0.00,WUHU216HW,2013-07-17 16:39:00,
2013-07-17 12:44:00,94.1,70.1,30.14,SSW,203,2.9,5.8,46,0.00,,,0.00,WUHU216HW,2013-07-17 16:44:00,
2013-07-17 12:49:00,94.3,70.3,30.14,SW,225,5.4,7.6,46,0.00,,,0.00,WUHU216HW,2013-07-17 16:49:00,
2013-07-17 12:54:00,94.0,69.9,30.13,SW,225,2.5,7.6,46,0.00,,,0.00,WUHU216HW,2013-07-17 16:54:00,
2013-07-17 12:59:00,93.6,69.6,30.13,SSW,203,2.2,6.5,46,0.00,,,0.00,WUHU216HW,2013-07-17 16:59:00,
2013-07-17 13:04:00,94.1,71.4,30.13,WSW,248,6.3,6.3,48,0.00,,,0.00,WUHU216HW,2013-07-17 17:04:00,
2013-07-17 13:09:00,94.3,70.3,30.13,SSW,203,3.1,6.5,46,0.00,,,0.00,WUHU216HW,2013-07-17 17:09:00,
2013-07-17 13:14:00,94.5,70.5,30.13,SSW,203,4.5,6.7,46,0.00,,,0.00,WUHU216HW,2013-07-17 17:14:00,
2013-07-17 13:19:00,95.0,70.3,30.13,WSW,248,6.3,6.7,45,0.00,,,0.00,WUHU216HW,2013-07-17 17:19:00,
2013-07-17 13:24:00,94.7,69.3,30.13,SSE,158,3.4,6.3,44,0.00,,,0.00,WUHU216HW,2013-07-17 17:24:00,
2013-07-17 13:29:00,94.0,71.2,30.13,SSE,158,3.8,6.3,48,0.00,,,0.00,WUHU216HW,2013-07-17 17:29:00,
2013-07-17 13:34:00,94.0,70.6,30.12,SW,225,4.3,6.3,47,0.00,,,0.00,WUHU216HW,2013-07-17 17:34:00,
2013-07-17 13:39:00,94.5,70.5,30.12,SSE,158,4.0,6.3,46,0.00,,,0.00,WUHU216HW,2013-07-17 17:39:00,
2013-07-17 13:44:00,95.0,71.7,30.12,WNW,293,1.8,4.7,47,0.00,,,0.00,WUHU216HW,2013-07-17 17:44:00,
2013-07-17 13:49:00,95.6,70.7,30.12,SW,225,2.7,7.6,45,0.00,,,0.00,WUHU216HW,2013-07-17 17:49:00,
2013-07-17 13:54:00,95.2,70.5,30.12,SW,225,3.8,7.6,45,0.00,,,0.00,WUHU216HW,2013-07-17 17:54:00,
2013-07-17 13:59:00,95.0,70.9,30.11,SW,225,3.6,5.4,46,0.00,,,0.00,WUHU216HW,2013-07-17 17:59:00,
2013-07-17 14:04:00,94.7,71.3,30.11,SSW,203,1.8,4.7,47,0.00,,,0.00,WUHU216HW,2013-07-17 18:04:00,
2013-07-17 14:09:00,95.4,70.7,30.11,WSW,248,3.4,4.0,45,0.00,,,0.00,WUHU216HW,2013-07-17 18:09:00,
2013-07-17 14:14:00,95.8,71.7,30.11,NW,315,1.6,4.5,46,0.00,,,0.00,WUHU216HW,2013-07-17 18:14:00,
2013-07-17 14:19:00,95.6,70.1,30.11,SSE,158,4.3,5.6,44,0.00,,,0.00,WUHU216HW,2013-07-17 18:19:00,
2013-07-17 14:24:00,94.9,69.5,30.11,South,180,3.4,5.6,44,0.00,,,0.00,WUHU216HW,2013-07-17 18:24:00,
2013-07-17 14:29:00,94.7,70.7,30.10,SW,225,1.8,4.5,46,0.00,,,0.00,WUHU216HW,2013-07-17 18:29:00,
2013-07-17 14:34:00,94.9,70.7,30.10,West,270,4.0,7.2,46,0.00,,,0.00,WUHU216HW,2013-07-17 18:34:00,
2013-07-17 14:39:00,95.4,71.3,30.10,SW,225,3.4,7.4,46,0.00,,,0.00,WUHU216HW,2013-07-17 18:39:00,
2013-07-17 14:44:00,95.2,71.8,30.10,SW,225,1.6,7.4,47,0.00,,,0.00,WUHU216HW,2013-07-17 18:44:00,
2013-07-17 14:49:00,95.4,71.9,30.09,WSW,248,3.1,6.3,47,0.00,,,0.00,WUHU216HW,2013-07-17 18:49:00,
2013-07-17 14:54:00,95.0,71.7,30.09,SW,225,3.4,6.3,47,0.00,,,0.00,WUHU216HW,2013-07-17 18:54:00,
2013-07-17 14:59:00,95.0,71.7,30.09,SW,225,2.0,5.1,47,0.00,,,0.00,WUHU216HW,2013-07-17 18:59:00,
2013-07-17 15:04:00,95.8,71.7,30.09,SW,225,6.0,6.0,46,0.00,,,0.00,WUHU216HW,2013-07-17 19:04:00,
2013-07-17 15:09:00,95.4,71.3,30.08,SW,225,3.4,6.0,46,0.00,,,0.00,WUHU216HW,2013-07-17 19:09:00,
2013-07-17 15:14:00,95.6,71.5,30.08,West,270,1.6,6.0,46,0.00,,,0.00,WUHU216HW,2013-07-17 19:14:00,
2013-07-17 15:19:00,95.6,71.5,30.08,SW,225,2.9,5.8,46,0.00,,,0.00,WUHU216HW,2013-07-17 19:19:00,
2013-07-17 15:24:00,95.4,71.3,30.08,SW,225,2.9,4.9,46,0.00,,,0.00,WUHU216HW,2013-07-17 19:24:00,
2013-07-17 15:29:00,95.4,70.7,30.08,SSE,158,4.3,5.8,45,0.00,,,0.00,WUHU216HW,2013-07-17 19:29:00,
2013-07-17 15:34:00,96.1,71.9,30.08,SSW,203,4.5,6.3,46,0.00,,,0.00,WUHU216HW,2013-07-17 19:34:00,
2013-07-17 15:39:00,96.3,70.7,30.07,SW,225,4.5,8.1,44,0.00,,,0.00,WUHU216HW,2013-07-17 19:39:00,
2013-07-17 15:44:00,95.9,70.5,30.06,SW,225,4.0,8.1,44,0.00,,,0.00,WUHU216HW,2013-07-17 19:44:00,
2013-07-17 15:49:00,95.8,70.3,30.06,WSW,248,4.3,6.3,44,0.00,,,0.00,WUHU216HW,2013-07-17 19:49:00,
2013-07-17 15:54:00,95.6,70.7,30.06,SSE,158,2.7,6.3,45,0.00,,,0.00,WUHU216HW,2013-07-17 19:54:00,
2013-07-17 15:59:00,95.6,70.1,30.06,SW,225,4.7,6.3,44,0.00,,,0.00,WUHU216HW,2013-07-17 19:59:00,
2013-07-17 16:04:00,95.9,69.8,30.05,WSW,248,7.6,7.6,43,0.00,,,0.00,WUHU216HW,2013-07-17 20:04:00,
2013-07-17 16:09:00,95.8,68.9,30.05,South,180,4.7,7.6,42,0.00,,,0.00,WUHU216HW,2013-07-17 20:09:00,
2013-07-17 16:14:00,95.2,69.8,30.05,WSW,248,2.2,7.6,44,0.00,,,0.00,WUHU216HW,2013-07-17 20:14:00,
2013-07-17 16:19:00,95.4,69.3,30.05,SSE,158,4.7,9.4,43,0.00,,,0.00,WUHU216HW,2013-07-17 20:19:00,
2013-07-17 16:24:00,95.2,69.1,30.05,SW,225,2.7,9.4,43,0.00,,,0.00,WUHU216HW,2013-07-17 20:24:00,
2013-07-17 16:29:00,95.2,70.5,30.05,WSW,248,4.0,7.4,45,0.00,,,0.00,WUHU216HW,2013-07-17 20:29:00,
2013-07-17 16:34:00,94.9,70.1,30.04,WSW,248,2.5,7.4,45,0.00,,,0.00,WUHU216HW,2013-07-17 20:34:00,
2013-07-17 16:39:00,95.2,69.8,30.04,SW,225,3.8,6.0,44,0.00,,,0.00,WUHU216HW,2013-07-17 20:39:00,
2013-07-17 16:44:00,95.2,70.5,30.04,WSW,248,3.1,6.3,45,0.00,,,0.00,WUHU216HW,2013-07-17 20:44:00,
2013-07-17 16:49:00,95.4,70.7,30.04,WSW,248,3.6,6.7,45,0.00,,,0.00,WUHU216HW,2013-07-17 20:49:00,
2013-07-17 16:54:00,95.2,70.5,30.04,SW,225,6.0,7.6,45,0.00,,,0.00,WUHU216HW,2013-07-17 20:54:00,
2013-07-17 16:59:00,95.0,70.9,30.04,SW,225,4.7,7.6,46,0.00,,,0.00,WUHU216HW,2013-07-17 20:59:00,
2013-07-17 17:04:00,94.5,71.1,30.03,SW,225,4.3,6.0,47,0.00,,,0.00,WUHU216HW,2013-07-17 21:04:00,
2013-07-17 17:09:00,94.5,71.1,30.03,SW,225,3.1,5.6,47,0.00,,,0.00,WUHU216HW,2013-07-17 21:09:00,
2013-07-17 17:14:00,94.3,70.9,30.03,SW,225,4.5,6.5,47,0.00,,,0.00,WUHU216HW,2013-07-17 21:14:00,
2013-07-17 17:19:00,94.5,71.1,30.03,SW,225,2.9,6.9,47,0.00,,,0.00,WUHU216HW,2013-07-17 21:19:00,
2013-07-17 17:20:00,94.7,71.3,30.03,SW,225,3.6,6.9,47,0.00,,,0.00,WUHU216HW,2013-07-17 21:20:00,
2013-07-17 17:25:00,94.7,70.7,30.03,SW,225,1.8,6.9,46,0.00,,,0.00,WUHU216HW,2013-07-17 21:25:00,
2013-07-17 17:30:00,94.0,70.6,30.03,WSW,248,3.1,4.5,47,0.00,,,0.00,WUHU216HW,2013-07-17 21:30:00,
2013-07-17 17:35:00,94.0,72.5,30.03,SW,225,4.0,4.5,50,0.00,,,0.00,WUHU216HW,2013-07-17 21:35:00,
2013-07-17 17:40:00,94.3,72.3,30.03,SW,225,3.4,5.6,49,0.00,,,0.00,WUHU216HW,2013-07-17 21:40:00,
2013-07-17 17:45:00,94.0,72.5,30.03,SW,225,4.3,5.6,50,0.00,,,0.00,WUHU216HW,2013-07-17 21:45:00,
2013-07-17 17:50:00,93.6,72.2,30.03,SSW,203,3.4,5.4,50,0.00,,,0.00,WUHU216HW,2013-07-17 21:50:00,
2013-07-17 17:55:00,93.4,72.5,30.03,SW,225,4.7,5.4,51,0.00,,,0.00,WUHU216HW,2013-07-17 21:55:00,
2013-07-17 18:00:00,93.2,72.4,30.02,SSW,203,4.9,5.8,51,0.00,,,0.00,WUHU216HW,2013-07-17 22:00:00,
2013-07-17 18:05:00,93.4,73.1,30.02,SSW,203,4.9,6.3,52,0.00,,,0.00,WUHU216HW,2013-07-17 22:05:00,
2013-07-17 18:10:00,93.6,73.3,30.02,SW,225,4.0,6.3,52,0.00,,,0.00,WUHU216HW,2013-07-17 22:10:00,
2013-07-17 18:15:00,93.4,72.5,30.01,WSW,248,4.0,5.1,51,0.00,,,0.00,WUHU216HW,2013-07-17 22:15:00,
2013-07-17 18:20:00,93.4,73.1,30.01,SSW,203,1.8,4.9,52,0.00,,,0.00,WUHU216HW,2013-07-17 22:20:00,
2013-07-17 18:25:00,93.2,72.9,30.00,SW,225,2.5,6.3,52,0.00,,,0.00,WUHU216HW,2013-07-17 22:25:00,
2013-07-17 18:30:00,92.9,72.6,30.00,West,270,3.4,7.4,52,0.00,,,0.00,WUHU216HW,2013-07-17 22:30:00,
2013-07-17 18:35:00,92.5,72.8,30.00,WSW,248,3.6,7.4,53,0.00,,,0.00,WUHU216HW,2013-07-17 22:35:00,
2013-07-17 18:40:00,92.5,72.8,30.00,SW,225,5.1,6.0,53,0.00,,,0.00,WUHU216HW,2013-07-17 22:40:00,
2013-07-17 18:45:00,92.5,72.8,30.01,SW,225,3.1,6.0,53,0.00,,,0.00,WUHU216HW,2013-07-17 22:45:00,
2013-07-17 18:50:00,92.5,73.4,30.01,WSW,248,2.2,6.0,54,0.00,,,0.00,WUHU216HW,2013-07-17 22:50:00,
2013-07-17 18:55:00,92.2,73.1,30.01,SW,225,2.5,6.0,54,0.00,,,0.00,WUHU216HW,2013-07-17 22:55:00,
2013-07-17 19:00:00,92.2,73.1,30.00,SW,225,2.5,4.3,54,0.00,,,0.00,WUHU216HW,2013-07-17 23:00:00,
2013-07-17 19:05:00,91.8,73.3,30.00,SW,225,4.7,5.6,55,0.00,,,0.00,WUHU216HW,2013-07-17 23:05:00,
2013-07-17 19:10:00,91.6,73.1,30.00,WSW,248,3.1,6.9,55,0.00,,,0.00,WUHU216HW,2013-07-17 23:10:00,
2013-07-17 19:15:00,91.3,73.3,30.00,SW,225,4.9,6.9,56,0.00,,,0.00,WUHU216HW,2013-07-17 23:15:00,
2013-07-17 19:20:00,91.1,73.1,30.01,WSW,248,2.7,4.9,56,0.00,,,0.00,WUHU216HW,2013-07-17 23:20:00,
2013-07-17 19:25:00,91.1,73.1,30.01,SW,225,1.8,4.9,56,0.00,,,0.00,WUHU216HW,2013-07-17 23:25:00,
2013-07-17 19:30:00,90.9,73.5,30.01,WSW,248,1.1,3.6,57,0.00,,,0.00,WUHU216HW,2013-07-17 23:30:00,
2013-07-17 19:35:00,90.7,73.9,30.02,SW,225,1.1,3.6,58,0.00,,,0.00,WUHU216HW,2013-07-17 23:35:00,
2013-07-17 19:40:00,90.5,73.7,30.02,WSW,248,3.8,3.8,58,0.00,,,0.00,WUHU216HW,2013-07-17 23:40:00,
2013-07-17 19:45:00,90.2,73.9,30.02,SW,225,1.6,3.8,59,0.00,,,0.00,WUHU216HW,2013-07-17 23:45:00,
2013-07-17 19:50:00,89.6,74.0,30.02,WSW,248,2.5,4.5,60,0.00,,,0.00,WUHU216HW,2013-07-17 23:50:00,
2013-07-17 19:55:00,89.3,73.6,30.02,WSW,248,3.4,4.5,60,0.00,,,0.00,WUHU216HW,2013-07-17 23:55:00,
2013-07-17 20:00:00,89.3,74.2,30.02,SW,225,2.2,4.5,61,0.00,,,0.00,WUHU216HW,2013-07-18 00:00:00,
2013-07-17 20:05:00,89.3,74.2,30.02,SW,225,3.1,4.5,61,0.00,,,0.00,WUHU216HW,2013-07-18 00:05:00,
2013-07-17 20:10:00,89.1,74.0,30.02,South,180,4.5,4.5,61,0.00,,,0.00,WUHU216HW,2013-07-18 00:10:00,
2013-07-17 20:15:00,88.9,74.3,30.02,SW,225,3.6,4.5,62,0.00,,,0.00,WUHU216HW,2013-07-18 00:15:00,
2013-07-17 20:20:00,88.7,74.1,30.02,SW,225,2.7,5.4,62,0.00,,,0.00,WUHU216HW,2013-07-18 00:20:00,
2013-07-17 20:25:00,88.2,74.1,30.02,SW,225,3.4,5.4,63,0.00,,,0.00,WUHU216HW,2013-07-18 00:25:00,
2013-07-17 20:30:00,87.8,74.2,30.01,SW,225,3.4,5.4,64,0.00,,,0.00,WUHU216HW,2013-07-18 00:30:00,
2013-07-17 20:35:00,87.5,74.3,30.01,SW,225,1.8,5.4,65,0.00,,,0.00,WUHU216HW,2013-07-18 00:35:00,
2013-07-17 20:40:00,87.5,74.3,30.01,SSW,203,3.8,5.4,65,0.00,,,0.00,WUHU216HW,2013-07-18 00:40:00,
2013-07-17 20:45:00,87.5,74.3,30.01,SW,225,3.4,4.9,65,0.00,,,0.00,WUHU216HW,2013-07-18 00:45:00,
2013-07-17 20:50:00,87.3,74.1,30.02,SW,225,3.4,6.5,65,0.00,,,0.00,WUHU216HW,2013-07-18 00:50:00,
2013-07-17 20:55:00,87.1,73.9,30.02,SSW,203,3.8,6.5,65,0.00,,,0.00,WUHU216HW,2013-07-18 00:55:00,
2013-07-17 21:00:00,86.8,74.1,30.01,SW,225,3.4,5.4,66,0.00,,,0.00,WUHU216HW,2013-07-18 01:00:00,
2013-07-17 21:05:00,86.4,73.7,30.01,SW,225,3.1,5.4,66,0.00,,,0.00,WUHU216HW,2013-07-18 01:05:00,
2013-07-17 21:10:00,86.4,73.7,30.01,SW,225,3.8,5.4,66,0.00,,,0.00,WUHU216HW,2013-07-18 01:10:00,
2013-07-17 21:15:00,86.6,73.9,30.01,SSW,203,4.5,5.4,66,0.00,,,0.00,WUHU216HW,2013-07-18 01:15:00,
2013-07-17 21:20:00,86.8,74.1,30.02,SW,225,4.3,5.4,66,0.00,,,0.00,WUHU216HW,2013-07-18 01:20:00,
2013-07-17 21:25:00,86.8,74.1,30.02,SW,225,4.3,5.1,66,0.00,,,0.00,WUHU216HW,2013-07-18 01:25:00,
2013-07-17 21:30:00,86.8,73.6,30.02,WSW,248,2.9,5.8,65,0.00,,,0.00,WUHU216HW,2013-07-18 01:30:00,
2013-07-17 21:35:00,86.4,73.7,30.03,SSW,203,2.2,5.8,66,0.00,,,0.00,WUHU216HW,2013-07-18 01:35:00,
2013-07-17 21:40:00,86.2,73.5,30.03,SSW,203,3.4,4.9,66,0.00,,,0.00,WUHU216HW,2013-07-18 01:40:00,
2013-07-17 21:45:00,86.2,73.5,30.03,WSW,248,2.5,3.8,66,0.00,,,0.00,WUHU216HW,2013-07-18 01:45:00,
2013-07-17 21:50:00,86.4,73.7,30.03,SW,225,2.5,3.8,66,0.00,,,0.00,WUHU216HW,2013-07-18 01:50:00,
2013-07-17 21:55:00,86.4,73.7,30.03,SW,225,4.0,4.3,66,0.00,,,0.00,WUHU216HW,2013-07-18 01:55:00,
2013-07-17 22:00:00,86.4,73.7,30.03,SW,225,3.4,4.3,66,0.00,,,0.00,WUHU216HW,2013-07-18 02:00:00,
2013-07-17 22:05:00,86.2,73.5,30.03,SW,225,2.5,4.0,66,0.00,,,0.00,WUHU216HW,2013-07-18 02:05:00,
2013-07-17 22:10:00,86.0,73.8,30.03,West,270,1.8,4.5,67,0.00,,,0.00,WUHU216HW,2013-07-18 02:10:00,
2013-07-17 22:15:00,85.7,73.5,30.03,SW,225,2.2,4.5,67,0.00,,,0.00,WUHU216HW,2013-07-18 02:15:00,
2013-07-17 22:20:00,85.7,73.5,30.03,SW,225,3.6,4.3,67,0.00,,,0.00,WUHU216HW,2013-07-18 02:20:00,
2013-07-17 22:25:00,85.9,73.6,30.03,SSW,203,3.4,4.7,67,0.00,,,0.00,WUHU216HW,2013-07-18 02:25:00,
2013-07-17 22:30:00,85.7,73.5,30.03,SW,225,3.8,5.6,67,0.00,,,0.00,WUHU216HW,2013-07-18 02:30:00,
2013-07-17 22:35:00,85.9,73.6,30.03,SW,225,3.4,5.6,67,0.00,,,0.00,WUHU216HW,2013-07-18 02:35:00,
2013-07-17 22:40:00,85.7,73.5,30.02,SSW,203,5.6,5.8,67,0.00,,,0.00,WUHU216HW,2013-07-18 02:40:00,
2013-07-17 22:45:00,85.3,73.2,30.02,SW,225,3.8,5.8,67,0.00,,,0.00,WUHU216HW,2013-07-18 02:45:00,
2013-07-17 22:50:00,85.1,73.5,30.02,WSW,248,4.7,5.4,68,0.00,,,0.00,WUHU216HW,2013-07-18 02:50:00,
2013-07-17 22:55:00,85.0,73.7,30.01,WSW,248,2.9,5.6,69,0.00,,,0.00,WUHU216HW,2013-07-18 02:55:00,
2013-07-17 23:00:00,85.1,73.5,30.01,SSW,203,1.8,5.6,68,0.00,,,0.00,WUHU216HW,2013-07-18 03:00:00,
2013-07-17 23:05:00,85.1,73.5,30.01,SW,225,3.4,5.6,68,0.00,,,0.00,WUHU216HW,2013-07-18 03:05:00,
2013-07-17 23:10:00,85.0,73.7,30.01,SSW,203,1.3,5.4,69,0.00,,,0.00,WUHU216HW,2013-07-18 03:10:00,
2013-07-17 23:15:00,84.6,73.8,30.00,WSW,248,4.0,5.4,70,0.00,,,0.00,WUHU216HW,2013-07-18 03:15:00,
2013-07-17 23:20:00,84.2,73.8,30.00,SW,225,3.4,6.0,71,0.00,,,0.00,WUHU216HW,2013-07-18 03:20:00,
2013-07-17 23:25:00,83.9,73.9,29.99,South,180,4.0,6.0,72,0.00,,,0.00,WUHU216HW,2013-07-18 03:25:00,
2013-07-17 23:30:00,84.2,74.3,29.98,SSW,203,5.1,5.4,72,0.00,,,0.00,WUHU216HW,2013-07-18 03:30:00,
2013-07-17 23:35:00,84.1,74.1,29.98,SW,225,5.1,5.6,72,0.00,,,0.00,WUHU216HW,2013-07-18 03:35:00,
2013-07-17 23:40:00,84.1,74.4,29.98,SW,225,3.8,7.2,73,0.00,,,0.00,WUHU216HW,2013-07-18 03:40:00,
2013-07-17 23:45:00,83.7,74.1,29.98,SW,225,4.7,7.2,73,0.00,,,0.00,WUHU216HW,2013-07-18 03:45:00,
2013-07-17 23:50:00,83.3,74.2,29.98,SSW,203,3.4,6.5,74,0.00,,,0.00,WUHU216HW,2013-07-18 03:50:00,
2013-07-17 23:55:00,83.2,74.4,29.98,SW,225,4.9,6.7,75,0.00,,,0.00,WUHU216HW,2013-07-18 03:55:00,